User: anonymous   Login
Location: Batang Balui
(2.7000°N, 113.7833°E)
Time: 09:52:48
(UTC+00:00)
Language:

deb Kosmos-1275 - Orbit

View from above orbital plane
View from above orbital plane
View from above satellite
View from above satellite

Ground track
Ground track

The orbit data is extracted from the following two-line orbital elements,

1 12756U 81053CZ  23341.36494812  .00007037  00000-0  13608-2 0  9995
2 12756  82.9840  44.5982 0017224 245.9477 241.1251 14.63180962198329
Epoch (UTC): 07 December 2023 08:45:31
Eccentricity: 0.0017224
inclination: 82.9840°
perigee height: 671 km
apogee height: 695 km
right ascension of ascending node: 44.5982°
argument of perigee: 245.9477°
revolutions per day: 14.63180962
mean anomaly at epoch: 241.1251°
orbit number at epoch: 19832

The dashed part of the orbit path shows where the satellite is in the earth's shadow,  

DLR